Lid_Strength_Index
1 5 7 8 12 14 16 12 9 9 8 6 6 7 8 7 9 12 2 1 0 0 -0 -0 -1 -1 -1 -1 -1 -1 -1 -1 -1 -1 -1 -1 -1 -1 -1 -1 -1 -2 -2 -2 -1 -1 -1 -1 -1
3 3 5 9 15 17 14 11 11 9 7 6 6 6 7 9 5 4 3 1 0 0 0 -0 -1 -1 -1 -1 -1 -1 -1 -1 -1 -1 -1 -1 -1 -1 -1 -1 -2 -2 -2 -1 -1 -1 -1 -1 -1
2 3 8 11 13 15 14 11 9 8 6 6 7 5 6 7 4 3 1 1 0 0 -0 -0 -1 -1 -1 -1 -1 -1 -1 -1 -1 -1 -1 -1 -1 -1 -1 -1 -2 -2 -1 -1 -1 -1 -1 -1 -1
5 7 8 12 13 10 10 9 9 8 6 5 6 9 5 3 3 2 1 1 0 0 -0 -0 -1 -1 -1 -1 -1 -1 -1 -1 -1 -1 -1 -1 -1 -1 -1 -1 -2 -2 -2 -1 -1 -1 -1 -1 -2
6 8 13 14 12 9 9 9 8 8 8 7 6 8 7 3 1 2 1 1 1 0 -0 -0 -1 -1 -1 -1 -1 -1 -1 -1 -1 -1 -1 -1 -1 -1 -1 -1 -2 -2 -2 -1 -1 -1 -1 -1 -1
8 9 13 14 12 9 9 8 8 9 8 6 7 8 7 3 2 1 1 1 0 1 0 -0 -1 -1 -1 -1 -1 -1 -1 -1 -1 -1 -1 -1 -1 -2 -1 -1 -2 -2 -2 -2 -1 -1 -1 -1 -1
10 11 13 12 11 10 8 8 9 8 7 6 5 8 6 4 2 2 1 0 1 0 0 0 -0 -0 -1 -1 -1 -1 -1 -1 -1 -1 -1 -1 -1 -1 -2 -1 -2 -2 -2 -2 -1 -1 -1 -1 -1
8 10 12 11 11 11 8 8 8 6 6 5 4 8 8 4 4 2 1 2 3 1 0 0 0 0 0 0 -1 -1 -1 -1 -1 -1 -1 -1 -1 -1 -1 -1 -1 -2 -2 -2 -1 -1 -1 -1 -1
7 13 14 11 12 10 9 10 7 5 6 5 5 5 4 5 4 3 2 2 3 1 1 0 0 0 0 0 -0 -1 -1 -1 -1 -1 -1 -1 0 -0 -1 -1 -2 -2 -2 -2 -1 -1 -1 -1 -1
10 13 11 9 9 10 8 9 8 7 7 6 5 5 3 5 3 4 3 3 3 3 2 1 1 0 0 -0 0 0 -0 -0 0 -0 0 0 1 0 -1 -1 -2 -2 -2 -2 -2 -1 -1 -1 -0
9 11 9 8 8 8 8 8 7 8 9 7 6 4 4 4 5 5 4 5 3 2 1 1 1 0 0 1 -0 0 0 0 0 0 0 0 0 0 -0 -0 -0 0 -1 -0 -1 -0 -0 0 -0
11 9 8 8 7 9 8 7 7 8 7 6 5 4 4 5 6 7 6 6 3 2 2 1 0 0 0 1 1 0 -0 -0 0 0 0 0 0 0 0 -0 -0 0 0 0 0 0 0 -0 -0
10 9 7 7 8 9 7 8 8 8 5 5 4 4 5 5 6 6 5 5 5 4 2 1 1 1 0 1 0 2 0 -0 0 0 0 0 0 0 1 1 0 0 0 0 0 0 0 0 0
8 8 7 8 8 8 8 8 8 7 5 5 5 6 5 5 5 5 4 5 4 5 2 1 1 1 4 1 0 0 0 -0 -0 0 3 3 3 2 -0 0 0 1 1 0 0 1 0 0 0
7 9 8 7 8 8 7 9 8 6 5 6 6 6 5 4 4 5 3 4 4 3 5 1 1 1 1 2 1 1 0 0 1 1 3 2 0 3 1 0 1 1 0 1 1 1 1 1 1
9 10 13 8 7 7 8 12 7 6 7 7 6 5 5 5 4 4 3 3 3 3 3 6 1 2 1 1 1 1 1 1 1 2 3 1 0 -1 -0 0 0 0 0 0 1 1 1 1 1
11 13 12 10 7 8 9 11 7 6 6 7 7 6 6 6 4 4 3 2 2 2 2 2 1 1 1 1 1 1 1 2 2 4 4 1 -1 -0 0 2 0 0 0 0 1 1 1 1 1
13 12 12 11 9 8 10 10 8 7 7 7 6 6 6 6 5 3 2 3 2 2 1 1 2 1 1 1 1 2 1 1 1 3 2 2 1 -0 -0 -0 -0 0 1 1 1 2 1 1 2
9 10 11 10 8 9 10 10 9 7 8 8 7 7 6 6 5 5 2 2 2 2 2 2 2 1 1 2 3 2 2 3 2 3 3 2 1 -0 -0 1 1 1 1 1 1 1 2 2 1
10 11 12 10 9 10 10 10 8 8 8 7 7 7 7 6 5 4 4 3 3 2 2 2 2 2 1 1 2 1 2 2 2 3 4 2 1 0 0 0 1 1 1 1 1 2 2 2 2
10 11 10 10 8 9 10 11 10 7 7 7 6 7 7 6 6 5 4 4 3 3 3 2 2 2 2 1 2 2 1 2 1 1 3 2 2 1 0 0 1 1 1 1 1 1 2 3 3
12 8 8 9 11 14 9 14 11 9 8 7 7 6 7 6 5 5 4 3 3 3 2 2 2 2 1 2 2 2 3 3 4 2 1 0 0 0 0 0 0 1 0 1 1 1 1 2 3
10 7 9 9 11 12 12 14 11 10 10 8 7 7 6 6 6 5 4 3 3 2 2 2 2 2 1 1 2 2 3 2 2 2 1 2 2 0 0 0 0 1 1 1 2 2 1 1 3
7 9 10 11 12 15 13 12 12 11 10 9 7 6 6 7 6 5 4 3 3 2 2 2 2 2 2 2 2 2 2 3 2 3 2 2 1 1 2 0 0 0 1 1 1 1 2 1 2
9 12 16 17 17 16 11 12 12 9 7 7 7 8 8 8 8 6 5 4 4 4 3 2 2 3 2 2 2 2 2 2 2 2 2 3 3 2 1 1 1 1 0 1 1 1 1 2 2
10 10 15 21 20 16 11 14 12 8 7 6 6 7 6 7 7 6 5 4 4 4 3 2 3 3 3 2 2 2 2 2 2 2 2 2 2 1 1 1 0 1 1 1 1 1 1 1 2
11 13 11 13 13 16 14 11 9 8 7 6 6 7 7 6 6 6 5 4 4 3 4 3 3 4 4 4 4 3 2 3 3 2 2 2 2 2 3 3 2 2 1 1 2 1 2 1 1
10 9 14 14 19 19 15 14 14 11 10 8 7 7 6 5 6 5 4 4 4 3 3 2 2 2 2 2 3 3 3 2 3 2 2 2 3 2 2 2 1 2 1 1 1 2 1 2 2
10 12 12 13 14 19 20 17 10 11 9 9 8 7 7 6 6 5 4 4 4 3 3 3 2 3 3 2 2 2 2 2 2 2 2 2 1 1 2 1 1 1 1 1 1 1 1 2 2
10 12 13 17 17 16 17 17 8 8 8 8 7 7 6 5 5 5 4 4 4 4 4 4 4 3 2 3 2 2 2 2 2 2 2 2 2 2 1 1 1 1 1 1 1 2 1 2 2